This is the latest recevied weather packets stored in our database for station/object K7SKM. If no packets are shown the sender has not sent any weather packets the latest 10 day(s).
| Time | Temp. | Humidity | Pressure | Rain* | Wind** | Luminosity | Snow |
|---|---|---|---|---|---|---|---|
| 1788220941 | 25° C | 45% | 1013 hPa | 0 mm | - | 146 W/m² | - |
| 1788220640 | 25.56° C | 44% | 1012.9 hPa | 0 mm | - | 98 W/m² | - |
| 1788220336 | 25.56° C | 45% | 1012.9 hPa | 0 mm | - | 100 W/m² | - |
| 1788220036 | 26.67° C | 42% | 1013.1 hPa | 0 mm | - | 79 W/m² | - |
| 1788219730 | 26.11° C | 44% | 1013 hPa | 0 mm | - | 301 W/m² | - |
| 1788219426 | 26.11° C | 45% | 1013 hPa | 0 mm | - | 346 W/m² | - |
| 1788219120 | 25.56° C | 45% | 1013.1 hPa | 0 mm | - | 105 W/m² | - |
| 1788218815 | 26.11° C | 45% | 1013.2 hPa | 0 mm | - | 169 W/m² | - |
| 1788218512 | 26.11° C | 45% | 1013.2 hPa | 0 mm | - | 110 W/m² | - |
| 1788218208 | 25.56° C | 45% | 1013.4 hPa | 0 mm | - | 121 W/m² | - |
| 1788217903 | 25° C | 47% | 1013.3 hPa | 0 mm | - | 253 W/m² | - |
| 1788217598 | 25° C | 47% | 1013.5 hPa | 0 mm | - | 106 W/m² | - |
| 1788217293 | 24.44° C | 48% | 1013.5 hPa | 0 mm | - | 178 W/m² | - |
| 1788216988 | 25° C | 47% | 1013.4 hPa | 0 mm | - | 133 W/m² | - |
| 1788216683 | 25° C | 47% | 1013.5 hPa | 0 mm | - | 73 W/m² | - |
| 1788216378 | 25° C | 47% | 1013.4 hPa | 0 mm | - | 72 W/m² | - |
| 1788216073 | 25° C | 47% | 1013.6 hPa | 0 mm | - | 77 W/m² | - |
| 1788215763 | 24.44° C | 47% | 1013.5 hPa | 0 mm | - | 102 W/m² | - |
| 1788215459 | 24.44° C | 48% | 1013.7 hPa | 0 mm | - | 76 W/m² | - |
| 1788215155 | 24.44° C | 48% | 1013.9 hPa | 0 mm | - | 69 W/m² | - |
| 1788214855 | 23.89° C | 48% | 1014 hPa | 0 mm | - | 61 W/m² | - |
| 1788214551 | 23.89° C | 48% | 1014 hPa | 0 mm | - | 58 W/m² | - |
| 1788214251 | 23.33° C | 50% | 1013.9 hPa | 0 mm | - | 58 W/m² | - |
| 1788213951 | 23.89° C | 49% | 1014 hPa | 0 mm | - | 62 W/m² | - |
| 1788213647 | 23.89° C | 49% | 1014.1 hPa | 0 mm | - | 85 W/m² | - |
* Rain latest hour (hover to see other rain measurements)
** Current wind speed in m/s (hover to see current wind gust speed)